User: anonymous   Login
Location: Caltech
(34.1382°N, 118.1253°W)
Time: 03:18:02
(UTC-07:00)
Language:

SEDSat Delta rocket - Orbit

View from above orbital plane
View from above orbital plane
View from above satellite
View from above satellite

Ground track
Ground track

The orbit data is extracted from the following two-line orbital elements,

1 25510U 98061C   17147.76124417 +.00000272 +00000-0 +34665-4 0  9998
2 25510 031.4362 257.4212 0328419 259.9408 232.7474 14.37202041974879
Epoch (UTC): 27 May 2017 18:16:11
Eccentricity: 0.0328419
inclination: 31.4362°
perigee height: 533 km
apogee height: 1002 km
right ascension of ascending node: 257.4212°
argument of perigee: 259.9408°
revolutions per day: 14.37202041
mean anomaly at epoch: 232.7474°
orbit number at epoch: 97487

The dashed part of the orbit path shows where the satellite is in the earth's shadow,  

DLR